sat.trackr.live / text

‹ back to catalog

ONEWEB-0018

NORAD 45434 · 2020-020L

PAYLOAD ACTIVE UNKNOWN

§ Identity

Operator
Country
UK
Launch date
2020-03-21
Launch site
TYMSC
Launch vehicle
Mass (kg)
RCS (m²)

Purposes: comms

External: N2YO · Heavens-Above · Gunter

§ Orbital elements

Epoch: 2026-05-25T02:23:58.791264Z

Period
109.80 min
Inclination
87.8913°
Eccentricity
0.0001817
Mean motion
13.11418824 rev/d
Perigee alt
1,216.3 km
Apogee alt
1,219.1 km
Semi-major
7,595.8 km
B*
2.4085e-4
RAAN
25.6594°
Arg perigee
69.1070°
Mean anomaly
291.0252°
Rev number
29,960

§ Raw data

ONEWEB-00181 45434U 20020L   26145.09998601  .00000098  00000+0  24085-3 0  99922 45434  87.8913  25.6594 0001817  69.1070 291.0252 13.11418824299609

JSON: /api/v1/satellites/45434 · /tle

For live sub-satellite position, see the globe view (requires WebGL).

§ Visibility from observer

Set your observer location to see the next 7 days of passes ≥ 10°. The values pass through the URL so the page stays shareable.

No JS? Fill the form by hand. The geolocation button needs JavaScript.